Simultaneous Nadir Overpasses (SNOs) Predictions

Prediction of SNOs between GOES-16 and NPP Satellite Orbit:

Table of predicted SNOs for the next 14.0 days since TLE Epoch: 8/12/2023
Index Date Time (GOES-16) GOES-16 Lat,Lon NPP Lat,Lon Distance(km) Time Diff (sec)
1 08/12/2023 18:12:00 -0.03, -75.22 0.86, -71.22 455.61 80
2 08/14/2023 06:33:47 0.02, -75.21 0.30, -76.49 145.57 80
3 08/15/2023 06:15:02 0.00, -75.22 -0.74, -71.97 370.94 80
4 08/16/2023 18:34:19 0.01, -75.24 -0.42, -77.28 231.53 80
5 08/17/2023 18:18:13 0.00, -75.26 0.56, -72.74 286.14 80
6 08/19/2023 06:40:01 -0.00, -75.27 0.59, -78.02 313.26 80
7 08/20/2023 06:18:35 0.00, -75.28 -0.40, -73.48 204.75 80
8 08/21/2023 18:40:31 -0.00, -75.31 -0.76, -78.80 396.44 80
9 08/22/2023 18:24:26 -0.00, -75.33 0.23, -74.26 121.75 80
10 08/24/2023 06:46:13 -0.00, -75.35 0.92, -79.54 477.15 80
11 08/25/2023 06:24:48 -0.00, -75.36 -0.07, -75.00 40.94 80
